Temp
21 21 19 18 18 18 18 17 17 17 17 17 17 17 18 17 17 17 16 15 15 16 16 16 16 16 16 16 16 16 17 18
22 22 21 20 20 18 18 18 18 17 17 17 17 17 17 18 17 17 17 16 15 15 15 16 16 16 16 16 16 16 16 18
20 21 20 20 20 20 19 18 18 18 17 17 17 17 15 16 18 17 16 15 15 14 14 14 15 15 15 15 15 17 18 17
20 18 19 19 20 20 19 18 18 18 18 17 17 16 16 16 14 16 16 17 16 16 14 14 13 15 15 15 15 18 17 18
19 18 18 19 19 20 19 17 17 17 17 17 15 15 14 15 14 14 14 15 13 13 14 14 13 13 14 14 16 16 16 17
19 17 17 18 20 20 19 18 18 18 17 16 16 15 14 14 14 13 13 13 13 14 13 12 12 12 14 13 14 14 14 14
19 18 17 17 18 18 17 17 17 16 17 16 16 16 15 15 14 14 13 13 12 12 12 13 12 13 12 12 13 13 13 13
19 18 18 18 18 17 16 16 16 16 16 15 15 15 15 15 14 14 13 12 12 13 12 13 13 14 14 13 13 13 14 14
19 18 18 18 17 17 17 16 16 16 15 14 14 14 13 14 14 14 13 12 11 12 12 12 12 13 13 14 14 14 14 14
19 19 18 18 18 17 18 17 16 16 15 14 13 13 13 14 14 13 12 13 12 11 11 11 12 12 12 12 13 14 14 14
19 18 18 17 17 17 16 15 16 16 15 15 13 13 13 14 14 13 12 13 12 12 12 12 12 13 12 11 12 13 14 14
18 18 17 16 16 16 16 16 16 15 15 15 14 14 13 14 14 13 13 13 13 12 12 12 12 12 12 12 13 12 13 13
18 17 17 16 16 16 16 16 16 16 15 14 14 14 13 13 14 14 13 13 12 12 12 12 12 12 12 13 13 14 13 14
18 18 17 16 17 17 17 17 16 16 16 14 13 13 13 13 13 13 13 13 13 12 12 12 12 13 12 12 13 14 15 13
18 18 18 17 16 17 16 15 15 15 15 14 14 13 13 13 13 13 12 12 12 12 12 12 12 12 12 13 12 13 13 13
18 18 18 17 16 16 16 16 16 17 17 16 15 14 13 13 13 12 12 12 12 11 12 11 11 11 12 12 12 12 12 11
17 17 17 17 16 15 15 15 15 15 15 14 13 13 13 12 12 12 11 11 11 11 11 11 11 11 11 11 12 12 12 13
17 17 17 16 16 15 14 14 14 14 14 13 12 12 12 12 11 10 10 10 10 10 10 10 10 10 10 10 11 11 12 12
17 17 16 16 16 15 14 13 13 12 12 11 11 10 10 10 9 9 8 8 8 8 8 8 8 8 9 9 10 10 11 11
18 18 17 16 16 15 13 12 11 11 11 9 9 9 9 8 7 7 7 7 7 7 7 7 7 8 8 8 9 10 10 11
Height
805 804 804 804 805 805 804 804 805 805 806 806 807 807 806 804 804 809 811 811 816 816 813 815 814 815 816 815 816 816 815 815
804 804 805 806 806 804 804 803 804 805 806 806 806 806 805 803 803 804 807 810 811 812 815 815 813 814 815 816 817 816 813 814
805 805 806 806 805 805 804 803 804 804 805 805 806 807 806 804 801 800 801 803 806 807 809 814 813 813 814 817 816 815 813 812
805 805 805 804 804 804 804 805 805 805 806 806 806 806 807 808 805 804 802 801 800 802 806 809 812 814 815 814 815 812 812 811
806 805 805 804 804 804 803 805 805 805 805 805 804 804 804 804 805 806 804 802 801 799 800 803 812 814 809 811 812 810 810 808
806 805 805 804 804 804 805 805 805 804 804 804 803 803 802 802 802 803 802 801 799 797 797 800 810 810 804 808 807 807 806 802
807 808 808 808 808 807 808 808 807 806 806 804 803 802 802 802 802 801 800 799 798 797 798 798 802 800 799 802 804 802 799 797
807 808 808 808 808 809 809 808 808 807 806 805 804 803 802 802 803 802 801 798 797 798 797 796 795 795 799 796 795 796 794 792
804 804 804 803 805 805 805 806 806 807 807 806 805 804 803 802 802 802 801 800 798 797 795 796 794 793 792 792 790 790 789 786
800 801 802 802 803 804 804 803 803 803 803 802 802 801 800 800 801 801 800 799 798 797 796 793 792 790 787 786 784 786 786 783
802 802 803 803 803 804 804 804 802 802 802 802 802 801 799 799 799 799 799 798 797 795 793 792 791 789 786 785 782 782 780 779
799 800 801 802 802 802 801 802 803 802 801 800 801 801 799 799 798 798 799 798 797 795 794 792 791 789 787 782 779 778 775 773
797 797 798 800 800 800 801 800 800 800 799 799 800 798 798 798 797 797 797 796 796 796 795 794 791 789 787 783 778 772 768 766
791 792 793 796 795 795 795 795 796 798 797 798 799 798 798 797 796 796 796 796 794 794 795 793 791 788 786 784 774 769 766 762
788 789 789 791 792 792 793 794 793 793 793 794 793 794 794 794 795 795 795 795 794 792 791 790 787 785 783 780 774 768 766 763
784 785 786 787 788 788 788 788 786 784 784 786 787 789 791 792 792 792 793 793 792 790 788 786 785 782 779 776 774 771 767 761
779 780 781 781 782 783 783 782 782 782 783 784 787 788 788 789 789 789 788 788 788 787 787 784 782 778 775 773 771 768 766 760
777 777 776 777 777 777 778 777 778 778 779 781 783 785 784 785 785 785 786 785 783 783 782 781 778 775 772 770 768 765 761 758
773 773 771 770 770 772 773 775 776 776 776 778 780 782 783 783 782 782 782 781 780 778 778 776 773 770 768 765 763 759 758 755
766 764 763 764 764 765 768 770 772 773 774 775 778 779 780 780 780 779 778 776 775 773 771 769 765 762 759 757 755 753 752 749
Wind_Speed
1 1 2 4 5 4 3 2 1 1 2 1 2 2 2 3 2 0 4 6 5 3 2 4 4 5 6 7 11 10 10 13
2 2 2 3 3 7 7 6 3 1 1 4 4 2 6 9 5 3 4 3 4 6 6 9 9 9 8 9 12 13 10 11
3 4 5 5 4 4 5 7 7 5 4 1 3 6 5 6 13 9 5 5 11 7 8 9 10 10 13 15 13 11 12 12
4 3 5 5 4 2 1 2 2 2 1 2 2 3 5 5 5 6 10 13 14 9 14 24 12 12 12 13 12 11 13 14
4 4 3 3 1 2 3 2 3 1 1 1 1 1 2 4 5 6 8 12 9 14 14 20 21 21 18 15 13 13 15 16
1 2 1 2 0 2 3 4 4 4 4 3 3 2 1 1 3 3 4 6 9 12 16 11 11 16 12 24 24 23 21 18
2 0 1 1 3 3 4 4 4 3 3 3 2 3 3 2 1 3 4 5 4 6 7 6 13 16 20 20 25 22 23 20
4 5 4 3 3 4 4 4 4 4 4 4 4 3 3 2 2 2 4 5 7 11 14 16 17 19 25 23 23 26 21 19
7 7 8 8 7 7 6 5 5 4 5 5 6 4 4 3 3 4 5 5 8 10 12 16 18 20 22 21 20 20 20 19
11 9 9 9 8 7 6 7 7 7 6 6 5 5 4 3 3 3 5 4 5 7 8 9 10 12 18 17 16 22 24 22
10 9 8 8 7 6 5 6 7 6 6 5 4 4 3 2 3 4 5 5 6 8 8 8 10 12 12 16 18 22 26 24
12 12 11 10 9 8 8 8 7 7 6 5 4 3 2 1 2 4 5 5 6 7 9 10 11 12 15 20 21 20 23 27
14 15 13 13 12 11 11 11 10 9 9 7 5 4 4 3 4 5 6 8 7 8 9 11 11 10 14 17 19 20 24 24
18 18 16 16 15 14 14 13 12 12 10 9 9 8 7 7 6 8 8 11 11 11 10 14 14 13 13 15 8 13 16 12
20 19 18 18 17 15 13 12 12 13 14 14 17 13 12 11 10 11 11 12 14 14 15 15 17 17 18 14 7 7 14 16
20 20 21 20 19 19 18 19 18 18 16 13 12 10 11 13 13 13 13 15 16 17 19 19 20 21 20 20 21 20 11 10
21 22 23 23 21 22 20 20 20 17 15 13 12 12 12 11 12 13 14 15 18 20 23 22 24 24 22 21 22 22 23 13
19 21 24 25 25 25 24 23 18 16 12 10 10 12 10 11 10 11 13 16 18 22 23 25 26 26 26 26 24 20 18 17
18 22 26 28 27 27 24 22 20 17 13 10 9 7 10 10 11 13 15 18 20 22 25 27 27 28 27 27 28 28 27 26
20 24 27 28 28 28 24 21 17 14 11 8 7 10 10 11 13 15 18 20 22 24 26 27 28 29 29 30 31 32 31 30
Wind_Direction
159 166 295 7 12 10 10 12 47 55 44 83 133 173 289 6 325 199 100 68 13 338 334 314 302 290 253 228 231 232 231 257
295 279 296 287 305 352 18 18 26 49 224 212 190 183 201 232 241 233 196 137 27 16 335 311 299 282 255 248 242 235 234 252
319 301 293 298 296 327 15 34 45 61 41 57 149 164 188 220 245 239 202 84 37 37 23 318 299 282 269 262 249 243 231 236
348 318 290 296 287 294 128 88 96 94 129 165 171 210 230 203 218 258 275 277 285 320 354 351 317 279 255 243 240 235 233 231
351 350 335 298 309 268 128 174 171 137 119 130 167 198 265 261 250 260 279 317 295 251 258 322 307 323 286 287 247 243 240 238
354 46 60 82 111 126 134 145 141 121 101 90 83 63 30 347 308 325 310 280 302 304 287 286 275 282 293 287 282 264 258 257
275 49 87 97 102 103 110 114 106 89 71 53 63 61 65 78 33 353 339 346 316 243 241 265 277 275 283 261 269 269 270 257
223 220 206 194 165 146 141 133 119 103 82 70 65 76 73 64 10 348 2 342 303 288 267 265 267 269 266 259 255 260 250 254
200 201 193 180 171 171 170 161 145 126 106 88 82 84 69 49 17 356 352 354 346 325 303 282 280 273 269 270 260 261 261 259
203 206 199 193 190 190 183 172 166 158 150 135 118 100 85 49 16 357 343 338 341 344 336 328 302 291 284 291 273 263 261 253
214 213 208 204 195 199 187 181 188 179 172 160 145 123 94 43 352 342 347 343 340 339 330 326 320 305 302 293 282 273 261 256
219 216 212 209 200 201 207 209 206 204 200 188 185 178 139 324 299 320 328 323 333 341 330 320 309 304 302 295 280 274 267 253
225 221 216 214 215 220 222 226 224 225 223 207 216 215 219 264 303 303 300 307 312 308 313 310 307 307 309 303 294 275 273 257
229 226 220 223 229 234 240 237 234 240 234 227 235 236 249 261 267 286 298 301 298 299 305 303 299 297 302 309 300 305 273 324
235 235 234 229 239 237 233 238 244 237 241 241 234 229 252 260 271 285 292 293 293 296 298 299 299 306 300 295 304 300 326 310
242 242 240 238 233 240 236 239 240 240 242 244 260 266 254 262 265 273 279 286 288 286 285 299 301 293 295 293 293 291 286 294
237 239 242 241 237 229 244 236 250 258 262 259 264 267 266 267 273 279 278 281 287 292 291 288 287 288 286 288 290 291 289 279
241 242 246 242 240 235 235 246 249 258 267 268 266 272 281 275 279 285 286 288 285 286 288 287 285 283 285 286 286 284 283 285
245 246 249 248 241 238 239 245 251 253 252 244 265 280 275 287 297 298 291 290 288 285 282 281 279 278 276 276 276 276 279 278
267 255 254 251 247 239 238 242 240 234 229 230 238 257 273 282 285 286 288 289 286 283 281 278 277 275 273 270 270 269 268 268